﻿測定場所 (Monitoring sites),日付 (Measurement date),時間 (Measurement time),線量率 最大値 (max) μGy/h,線量率 最小値 (min) μGy/h,線量率 平均値 (average) μGy/h,
足立 (Adachi),2012-08-19,23:01～24:00,0.0690,0.0621,0.0653,
足立 (Adachi),2012-08-19,22:01～23:00,0.0696,0.0624,0.0655,
足立 (Adachi),2012-08-19,21:01～22:00,0.0681,0.0607,0.0650,
足立 (Adachi),2012-08-19,20:01～21:00,0.0687,0.0620,0.0654,
足立 (Adachi),2012-08-19,19:01～20:00,0.0681,0.0613,0.0650,
足立 (Adachi),2012-08-19,18:01～19:00,0.0674,0.0605,0.0652,
足立 (Adachi),2012-08-19,17:01～18:00,0.0687,0.0609,0.0650,
足立 (Adachi),2012-08-19,16:01～17:00,0.0686,0.0617,0.0647,
足立 (Adachi),2012-08-19,15:01～16:00,0.0690,0.0611,0.0649,
足立 (Adachi),2012-08-19,14:01～15:00,0.0691,0.0605,0.0651,
足立 (Adachi),2012-08-19,13:01～14:00,0.0686,0.0607,0.0648,
足立 (Adachi),2012-08-19,12:01～13:00,0.0691,0.0620,0.0647,
足立 (Adachi),2012-08-19,11:01～12:00,0.0693,0.0606,0.0649,
足立 (Adachi),2012-08-19,10:01～11:00,0.0697,0.0613,0.0650,
足立 (Adachi),2012-08-19,09:01～10:00,0.0679,0.0612,0.0647,
足立 (Adachi),2012-08-19,08:01～09:00,0.0701,0.0617,0.0646,
足立 (Adachi),2012-08-19,07:01～08:00,0.0683,0.0601,0.0640,
足立 (Adachi),2012-08-19,06:01～07:00,0.0662,0.0599,0.0632,
足立 (Adachi),2012-08-19,05:01～06:00,0.0671,0.0608,0.0639,
足立 (Adachi),2012-08-19,04:01～05:00,0.0685,0.0597,0.0645,
足立 (Adachi),2012-08-19,03:01～04:00,0.0682,0.0603,0.0645,
足立 (Adachi),2012-08-19,02:01～03:00,0.0673,0.0609,0.0641,
足立 (Adachi),2012-08-19,01:01～02:00,0.0690,0.0608,0.0646,
足立 (Adachi),2012-08-19,00:01～01:00,0.0685,0.0617,0.0649,
足立 (Adachi),2012-08-18,23:01～24:00,0.0674,0.0615,0.0643,
足立 (Adachi),2012-08-18,22:01～23:00,0.0689,0.0604,0.0647,
足立 (Adachi),2012-08-18,21:01～22:00,0.0684,0.0608,0.0645,
足立 (Adachi),2012-08-18,20:01～21:00,0.0681,0.0620,0.0647,
足立 (Adachi),2012-08-18,19:01～20:00,0.0676,0.0608,0.0644,
足立 (Adachi),2012-08-18,18:01～19:00,0.0695,0.0610,0.0642,
足立 (Adachi),2012-08-18,17:01～18:00,0.0688,0.0591,0.0645,
足立 (Adachi),2012-08-18,16:01～17:00,0.0672,0.0602,0.0642,
足立 (Adachi),2012-08-18,15:01～16:00,0.0694,0.0595,0.0644,
足立 (Adachi),2012-08-18,14:01～15:00,0.0680,0.0597,0.0644,
足立 (Adachi),2012-08-18,13:01～14:00,0.0667,0.0605,0.0637,
足立 (Adachi),2012-08-18,12:01～13:00,0.0682,0.0613,0.0654,
足立 (Adachi),2012-08-18,11:01～12:00,0.0688,0.0614,0.0652,
足立 (Adachi),2012-08-18,10:01～11:00,0.0689,0.0599,0.0644,
足立 (Adachi),2012-08-18,09:01～10:00,0.0694,0.0618,0.0652,
足立 (Adachi),2012-08-18,08:01～09:00,0.0684,0.0619,0.0650,
足立 (Adachi),2012-08-18,07:01～08:00,0.0679,0.0604,0.0643,
足立 (Adachi),2012-08-18,06:01～07:00,0.0681,0.0601,0.0641,
足立 (Adachi),2012-08-18,05:01～06:00,0.0701,0.0618,0.0647,
足立 (Adachi),2012-08-18,04:01～05:00,0.0683,0.0611,0.0645,
足立 (Adachi),2012-08-18,03:01～04:00,0.0701,0.0603,0.0650,
足立 (Adachi),2012-08-18,02:01～03:00,0.0688,0.0611,0.0653,
足立 (Adachi),2012-08-18,01:01～02:00,0.0686,0.0619,0.0653,
足立 (Adachi),2012-08-18,00:01～01:00,0.0691,0.0622,0.0654,
足立 (Adachi),2012-08-17,23:01～24:00,0.0684,0.0609,0.0652,
足立 (Adachi),2012-08-17,22:01～23:00,0.0684,0.0614,0.0655,
足立 (Adachi),2012-08-17,21:01～22:00,0.0693,0.0613,0.0654,
足立 (Adachi),2012-08-17,20:01～21:00,0.0692,0.0620,0.0649,
足立 (Adachi),2012-08-17,19:01～20:00,0.0702,0.0622,0.0657,
足立 (Adachi),2012-08-17,18:01～19:00,0.0690,0.0620,0.0655,
足立 (Adachi),2012-08-17,17:01～18:00,0.0688,0.0609,0.0653,
足立 (Adachi),2012-08-17,16:01～17:00,0.0682,0.0613,0.0648,
足立 (Adachi),2012-08-17,15:01～16:00,0.0702,0.0610,0.0650,
足立 (Adachi),2012-08-17,14:01～15:00,0.0697,0.0618,0.0650,
足立 (Adachi),2012-08-17,13:01～14:00,0.0684,0.0608,0.0644,
足立 (Adachi),2012-08-17,12:01～13:00,0.0680,0.0596,0.0646,
足立 (Adachi),2012-08-17,11:01～12:00,0.0678,0.0611,0.0643,
足立 (Adachi),2012-08-17,10:01～11:00,0.0694,0.0592,0.0642,
足立 (Adachi),2012-08-17,09:01～10:00,0.0683,0.0592,0.0648,
足立 (Adachi),2012-08-17,08:01～09:00,0.0679,0.0604,0.0645,
足立 (Adachi),2012-08-17,07:01～08:00,0.0696,0.0616,0.0643,
足立 (Adachi),2012-08-17,06:01～07:00,0.0673,0.0603,0.0638,
足立 (Adachi),2012-08-17,05:01～06:00,0.0678,0.0602,0.0637,
足立 (Adachi),2012-08-17,04:01～05:00,0.0690,0.0606,0.0639,
足立 (Adachi),2012-08-17,03:01～04:00,0.0681,0.0615,0.0643,
足立 (Adachi),2012-08-17,02:01～03:00,0.0672,0.0589,0.0640,
足立 (Adachi),2012-08-17,01:01～02:00,0.0676,0.0600,0.0641,
足立 (Adachi),2012-08-17,00:01～01:00,0.0674,0.0610,0.0649,
足立 (Adachi),2012-08-16,23:01～24:00,0.0685,0.0618,0.0649,
足立 (Adachi),2012-08-16,22:01～23:00,0.0686,0.0618,0.0648,
足立 (Adachi),2012-08-16,21:01～22:00,0.0676,0.0601,0.0647,
足立 (Adachi),2012-08-16,20:01～21:00,0.0685,0.0617,0.0650,
足立 (Adachi),2012-08-16,19:01～20:00,0.0685,0.0603,0.0649,
足立 (Adachi),2012-08-16,18:01～19:00,0.0687,0.0598,0.0642,
足立 (Adachi),2012-08-16,17:01～18:00,0.0684,0.0599,0.0643,
足立 (Adachi),2012-08-16,16:01～17:00,0.0691,0.0607,0.0645,
足立 (Adachi),2012-08-16,15:01～16:00,0.0683,0.0618,0.0647,
足立 (Adachi),2012-08-16,14:01～15:00,0.0683,0.0602,0.0642,
足立 (Adachi),2012-08-16,13:01～14:00,0.0670,0.0599,0.0638,
足立 (Adachi),2012-08-16,12:01～13:00,0.0673,0.0603,0.0642,
足立 (Adachi),2012-08-16,11:01～12:00,0.0691,0.0604,0.0642,
足立 (Adachi),2012-08-16,10:01～11:00,0.0682,0.0598,0.0640,
足立 (Adachi),2012-08-16,09:01～10:00,0.0692,0.0610,0.0640,
足立 (Adachi),2012-08-16,08:01～09:00,0.0684,0.0601,0.0641,
足立 (Adachi),2012-08-16,07:01～08:00,0.0663,0.0594,0.0635,
足立 (Adachi),2012-08-16,06:01～07:00,0.0661,0.0599,0.0635,
足立 (Adachi),2012-08-16,05:01～06:00,0.0668,0.0596,0.0632,
足立 (Adachi),2012-08-16,04:01～05:00,0.0676,0.0606,0.0640,
足立 (Adachi),2012-08-16,03:01～04:00,0.0675,0.0608,0.0639,
足立 (Adachi),2012-08-16,02:01～03:00,0.0682,0.0600,0.0643,
足立 (Adachi),2012-08-16,01:01～02:00,0.0662,0.0601,0.0640,
足立 (Adachi),2012-08-16,00:01～01:00,0.0669,0.0611,0.0641,
足立 (Adachi),2012-08-15,23:01～24:00,0.0694,0.0600,0.0644,
足立 (Adachi),2012-08-15,22:01～23:00,0.0689,0.0609,0.0643,
足立 (Adachi),2012-08-15,21:01～22:00,0.0689,0.0606,0.0645,
足立 (Adachi),2012-08-15,20:01～21:00,0.0689,0.0599,0.0643,
足立 (Adachi),2012-08-15,19:01～20:00,0.0670,0.0602,0.0642,
足立 (Adachi),2012-08-15,18:01～19:00,0.0670,0.0601,0.0641,
足立 (Adachi),2012-08-15,17:01～18:00,0.0677,0.0595,0.0642,
足立 (Adachi),2012-08-15,16:01～17:00,0.0701,0.0612,0.0640,
足立 (Adachi),2012-08-15,15:01～16:00,0.0674,0.0609,0.0640,
足立 (Adachi),2012-08-15,14:01～15:00,0.0671,0.0607,0.0637,
足立 (Adachi),2012-08-15,13:01～14:00,0.0674,0.0609,0.0638,
足立 (Adachi),2012-08-15,12:01～13:00,0.0672,0.0595,0.0637,
足立 (Adachi),2012-08-15,11:01～12:00,0.0676,0.0602,0.0635,
足立 (Adachi),2012-08-15,10:01～11:00,0.0686,0.0604,0.0640,
足立 (Adachi),2012-08-15,09:01～10:00,0.0691,0.0598,0.0636,
足立 (Adachi),2012-08-15,08:01～09:00,0.0678,0.0585,0.0637,
足立 (Adachi),2012-08-15,07:01～08:00,0.0663,0.0596,0.0632,
足立 (Adachi),2012-08-15,06:01～07:00,0.0667,0.0589,0.0628,
足立 (Adachi),2012-08-15,05:01～06:00,0.0667,0.0602,0.0635,
足立 (Adachi),2012-08-15,04:01～05:00,0.0673,0.0600,0.0636,
足立 (Adachi),2012-08-15,03:01～04:00,0.0679,0.0596,0.0638,
足立 (Adachi),2012-08-15,02:01～03:00,0.0664,0.0592,0.0636,
足立 (Adachi),2012-08-15,01:01～02:00,0.0681,0.0598,0.0637,
足立 (Adachi),2012-08-15,00:01～01:00,0.0672,0.0594,0.0632,
足立 (Adachi),2012-08-14,23:01～24:00,0.0669,0.0581,0.0632,
足立 (Adachi),2012-08-14,22:01～23:00,0.0680,0.0598,0.0634,
足立 (Adachi),2012-08-14,21:01～22:00,0.0665,0.0597,0.0633,
足立 (Adachi),2012-08-14,20:01～21:00,0.0672,0.0601,0.0632,
足立 (Adachi),2012-08-14,19:01～20:00,0.0658,0.0600,0.0629,
足立 (Adachi),2012-08-14,18:01～19:00,0.0667,0.0592,0.0635,
足立 (Adachi),2012-08-14,17:01～18:00,0.0681,0.0594,0.0632,
足立 (Adachi),2012-08-14,16:01～17:00,0.0667,0.0592,0.0630,
足立 (Adachi),2012-08-14,15:01～16:00,0.0666,0.0591,0.0631,
足立 (Adachi),2012-08-14,14:01～15:00,0.0670,0.0593,0.0636,
足立 (Adachi),2012-08-14,13:01～14:00,0.0669,0.0605,0.0637,
足立 (Adachi),2012-08-14,12:01～13:00,0.0690,0.0608,0.0650,
足立 (Adachi),2012-08-14,11:01～12:00,0.0740,0.0651,0.0691,
足立 (Adachi),2012-08-14,10:01～11:00,0.0778,0.0665,0.0713,
足立 (Adachi),2012-08-14,09:01～10:00,0.0778,0.0678,0.0721,
足立 (Adachi),2012-08-14,08:01～09:00,0.0747,0.0637,0.0699,
足立 (Adachi),2012-08-14,07:01～08:00,0.0702,0.0609,0.0657,
足立 (Adachi),2012-08-14,06:01～07:00,0.0692,0.0611,0.0645,
足立 (Adachi),2012-08-14,05:01～06:00,0.0689,0.0596,0.0651,
足立 (Adachi),2012-08-14,04:01～05:00,0.0697,0.0625,0.0660,
足立 (Adachi),2012-08-14,03:01～04:00,0.0690,0.0600,0.0646,
足立 (Adachi),2012-08-14,02:01～03:00,0.0683,0.0606,0.0646,
足立 (Adachi),2012-08-14,01:01～02:00,0.0711,0.0619,0.0651,
足立 (Adachi),2012-08-14,00:01～01:00,0.0691,0.0604,0.0654,
足立 (Adachi),2012-08-13,23:01～24:00,0.0694,0.0619,0.0664,
足立 (Adachi),2012-08-13,22:01～23:00,0.0682,0.0619,0.0653,
足立 (Adachi),2012-08-13,21:01～22:00,0.0686,0.0614,0.0649,
足立 (Adachi),2012-08-13,20:01～21:00,0.0676,0.0605,0.0648,
足立 (Adachi),2012-08-13,19:01～20:00,0.0696,0.0587,0.0645,
足立 (Adachi),2012-08-13,18:01～19:00,0.0687,0.0599,0.0646,
足立 (Adachi),2012-08-13,17:01～18:00,0.0680,0.0610,0.0646,
足立 (Adachi),2012-08-13,16:01～17:00,0.0679,0.0608,0.0649,
足立 (Adachi),2012-08-13,15:01～16:00,0.0686,0.0600,0.0647,
足立 (Adachi),2012-08-13,14:01～15:00,0.0676,0.0598,0.0645,
足立 (Adachi),2012-08-13,13:01～14:00,0.0690,0.0598,0.0643,
足立 (Adachi),2012-08-13,12:01～13:00,0.0687,0.0611,0.0644,
足立 (Adachi),2012-08-13,11:01～12:00,0.0674,0.0603,0.0635,
足立 (Adachi),2012-08-13,10:01～11:00,0.0670,0.0602,0.0641,
足立 (Adachi),2012-08-13,09:01～10:00,0.0665,0.0606,0.0634,
足立 (Adachi),2012-08-13,08:01～09:00,0.0674,0.0606,0.0632,
足立 (Adachi),2012-08-13,07:01～08:00,0.0683,0.0598,0.0627,
足立 (Adachi),2012-08-13,06:01～07:00,0.0664,0.0609,0.0631,
足立 (Adachi),2012-08-13,05:01～06:00,0.0673,0.0584,0.0634,
足立 (Adachi),2012-08-13,04:01～05:00,0.0680,0.0608,0.0637,
足立 (Adachi),2012-08-13,03:01～04:00,0.0678,0.0602,0.0636,
足立 (Adachi),2012-08-13,02:01～03:00,0.0661,0.0603,0.0631,
足立 (Adachi),2012-08-13,01:01～02:00,0.0667,0.0606,0.0636,
足立 (Adachi),2012-08-13,00:01～01:00,0.0659,0.0593,0.0634,
